Location: Hope
(40.9110°N, 74.9680°W)
Time: 10:28:39
(UTC-04:00)

Envisat - Pass Details

Date: 01 February 2019
Orbit: 764 x 766 km, 98.2° (Epoch: 17 April)

Event Time Altitude Azimuth Distance (km) Brightness Sun altitude
Rises 06:02:37 0° 37° (NE) 3,241 6.6 -13.1°
Reaches altitude 10° 06:07:16 10° 77° (ENE) 2,307 6.6 -12.2°
Maximum altitude 06:08:15 11° 88° (E) 2,268 6.8 -12.1°
Drops below altitude 10° 06:09:15 10° 99° (E) 2,303 7.0 -11.9°
Sets 06:13:51 0° 138° (SE) 3,221 7.2 -11.0°
